| time (UTC) | temp F | wind direction | speed MPH | gust MPH | rain 1hr in | rain 24hr in | rain mn in | humidity % | barometer mb |
| 20260508184524 | 65 | 319 | 3.0 | 7.0 | 0.00 | 0.01 | 0.01 | 38 | 1017.3 |
| 20260508183026 | 64 | 269 | 4.0 | 12.0 | 0.00 | 0.01 | 0.01 | 40 | 1017.3 |
| 20260508181516 | 64 | 156 | 1.0 | 3.0 | 0.00 | 0.01 | 0.01 | 47 | 1017.5 |
| 20260508180020 | 63 | 317 | 4.0 | 6.0 | 0.00 | 0.01 | 0.01 | 46 | 1017.5 |
| 20260508174505 | 63 | 83 | 3.0 | 6.0 | 0.00 | 0.01 | 0.01 | 43 | 1017.8 |
| 20260508173008 | 62 | 192 | 1.0 | 5.0 | 0.00 | 0.01 | 0.01 | 45 | 1018.3 |
| 20260508171513 | 62 | 192 | 2.0 | 5.0 | 0.00 | 0.01 | 0.01 | 43 | 1018.6 |
| 20260508170020 | 61 | 325 | 3.0 | 5.0 | 0.00 | 0.01 | 0.01 | 52 | 1018.8 |
| 20260508164522 | 60 | 28 | 3.0 | 10.0 | 0.00 | 0.01 | 0.01 | 54 | 1019.1 |
| 20260508163013 | 59 | 338 | 2.0 | 5.0 | 0.00 | 0.01 | 0.01 | 55 | 1019.4 |
| 20260508161521 | 59 | 338 | 3.0 | 4.0 | 0.00 | 0.01 | 0.01 | 55 | 1019.7 |
| 20260508160017 | 58 | 109 | 2.0 | 7.0 | 0.00 | 0.01 | 0.01 | 60 | 1019.9 |
| 20260508154525 | 58 | 212 | 2.0 | 5.0 | 0.00 | 0.01 | 0.01 | 55 | 1020.1 |
| 20260508153016 | 57 | 128 | 3.0 | 6.0 | 0.00 | 0.01 | 0.01 | 61 | 1020.1 |
| 20260508151511 | 55 | 17 | 2.0 | 4.0 | 0.00 | 0.01 | 0.01 | 62 | 1020.2 |
| 20260508150013 | 54 | 328 | 1.0 | 4.0 | 0.00 | 0.01 | 0.01 | 66 | 1020.4 |
| 20260508144519 | 53 | 290 | 2.0 | 4.0 | 0.00 | 0.01 | 0.01 | 75 | 1020.4 |
| 20260508143032 | 52 | 342 | 2.0 | 3.0 | 0.00 | 0.01 | 0.01 | 78 | 1020.3 |
| 20260508141509 | 50 | 242 | 1.0 | 3.0 | 0.00 | 0.01 | 0.01 | 87 | 1020.4 |
| 20260508140014 | 48 | 307 | 1.0 | 3.0 | 0.00 | 0.01 | 0.01 | 89 | 1020.3 |
| 20260508134519 | 47 | 161 | 1.0 | 5.0 | 0.00 | 0.01 | 0.01 | 91 | 1020.3 |
| 20260508133028 | 46 | 196 | 3.0 | 4.0 | 0.00 | 0.01 | 0.01 | 93 | 1020.2 |
| 20260508131525 | 45 | 152 | 0.0 | 2.0 | 0.00 | 0.01 | 0.01 | 94 | 1020.3 |
| 20260508130011 | 45 | 148 | 1.0 | 2.0 | 0.00 | 0.01 | 0.01 | 94 | 1020.2 |
| 20260508124533 | 44 | 104 | 1.0 | 3.0 | 0.00 | 0.02 | 0.01 | 94 | 1020.1 |
| 20260508123023 | 44 | 144 | 0.0 | 2.0 | 0.00 | 0.02 | 0.01 | 94 | 1020.0 |
| 20260508121530 | 43 | 173 | 0.0 | 2.0 | 0.01 | 0.02 | 0.01 | 94 | 1019.9 |
| 20260508120028 | 42 | 180 | 1.0 | 2.0 | 0.01 | 0.02 | 0.01 | 94 | 1019.7 |
| 20260508114517 | 42 | 9 | 0.0 | 2.0 | 0.01 | 0.02 | 0.01 | 94 | 1019.5 |
| 20260508113020 | 40 | 322 | 1.0 | 2.0 | 0.01 | 0.02 | 0.01 | 93 | 1019.3 |
| 20260508111525 | 39 | 259 | 1.0 | 3.0 | 0.00 | 0.01 | 0.00 | 93 | 1019.2 |
| 20260508110032 | 39 | 82 | 0.0 | 0.0 | 0.00 | 0.01 | 0.00 | 91 | 1018.7 |
| 20260508104527 | 40 | 82 | 0.0 | 0.0 | 0.00 | 0.01 | 0.00 | 92 | 1018.3 |
| 20260508103035 | 40 | 82 | 0.0 | 0.0 | 0.00 | 0.01 | 0.00 | 92 | 1018.3 |
| 20260508101522 | 40 | 82 | 0.0 | 0.0 | 0.00 | 0.01 | 0.00 | 92 | 1018.2 |
| 20260508100028 | 40 | 82 | 0.0 | 0.0 | 0.00 | 0.01 | 0.00 | 92 | 1018.0 |
| 20260508094526 | 41 | 99 | 0.0 | 0.0 | 0.00 | 0.01 | 0.00 | 92 | 1018.0 |
| 20260508093036 | 41 | 99 | 0.0 | 0.0 | 0.00 | 0.01 | 0.00 | 92 | 1018.1 |
| 20260508091523 | 41 | 99 | 0.0 | 2.0 | 0.00 | 0.01 | 0.00 | 92 | 1018.1 |
| 20260508090005 | 41 | 99 | 0.0 | 2.0 | 0.00 | 0.01 | 0.00 | 92 | 1018.0 |
| 20260508084504 | 41 | 99 | 0.0 | 1.0 | 0.00 | 0.01 | 0.00 | 92 | 1017.9 |
| 20260508083008 | 41 | 99 | 0.0 | 0.0 | 0.00 | 0.01 | 0.00 | 91 | 1017.8 |
| 20260508081519 | 42 | 99 | 0.0 | 2.0 | 0.00 | 0.02 | 0.00 | 92 | 1017.9 |
| 20260508080020 | 42 | 99 | 0.0 | 2.0 | 0.00 | 0.03 | 0.00 | 92 | 1017.9 |
| 20260508074504 | 42 | 99 | 0.0 | 2.0 | 0.00 | 0.04 | 0.00 | 92 | 1017.9 |
| 20260508073009 | 41 | 99 | 0.0 | 0.0 | 0.00 | 0.04 | 0.00 | 91 | 1017.9 |
| 20260508071515 | 42 | 99 | 0.0 | 0.0 | 0.00 | 0.05 | 0.00 | 91 | 1017.8 |
| 20260508070019 | 42 | 99 | 0.0 | 0.0 | 0.00 | 0.05 | 0.00 | 91 | 1017.9 |
| 20260508064528 | 43 | 99 | 0.0 | 0.0 | 0.00 | 0.05 | 0.00 | 91 | 1017.9 |
| 20260508063009 | 44 | 99 | 0.0 | 2.0 | 0.00 | 0.05 | 0.00 | 91 | 1017.7 |
| 20260508061514 | 44 | 99 | 0.0 | 0.0 | 0.00 | 0.05 | 0.00 | 91 | 1017.9 |
| 20260508060025 | 45 | 99 | 0.0 | 0.0 | 0.00 | 0.07 | 0.00 | 91 | 1017.9 |
| 20260508054557 | 45 | 99 | 0.0 | 2.0 | 0.00 | 0.07 | 0.00 | 91 | 1018.0 |
| 20260508053038 | 46 | 99 | 0.0 | 2.0 | 0.00 | 0.07 | 0.00 | 91 | 1018.0 |
| 20260508051510 | 46 | 130 | 0.0 | 2.0 | 0.00 | 0.07 | 0.00 | 91 | 1018.0 |
| 20260508050014 | 46 | 190 | 0.0 | 2.0 | 0.00 | 0.07 | 0.00 | 91 | 1018.0 |
| 20260508044520 | 47 | 190 | 0.0 | 2.0 | 0.00 | 0.07 | 0.00 | 91 | 1017.8 |
| 20260508043033 | 47 | 190 | 0.0 | 2.0 | 0.00 | 0.07 | 0.00 | 91 | 1017.7 |
| 20260508041528 | 47 | 190 | 0.0 | 0.0 | 0.00 | 0.07 | 0.00 | 91 | 1017.6 |
| 20260508040013 | 47 | 190 | 0.0 | 0.0 | 0.00 | 0.07 | 0.00 | 91 | 1017.6 |
| 20260508034519 | 48 | 190 | 0.0 | 0.0 | 0.00 | 0.07 | 0.07 | 91 | 1017.5 |
| 20260508033029 | 48 | 190 | 0.0 | 1.0 | 0.00 | 0.07 | 0.07 | 91 | 1017.6 |
| 20260508031524 | 48 | 190 | 0.0 | 2.0 | 0.00 | 0.07 | 0.07 | 90 | 1017.5 |
| 20260508030026 | 48 | 190 | 0.0 | 2.0 | 0.00 | 0.07 | 0.07 | 89 | 1017.3 |
| 20260508024514 | 49 | 190 | 0.0 | 2.0 | 0.00 | 0.08 | 0.07 | 90 | 1017.1 |
| 20260508023018 | 48 | 190 | 0.0 | 1.0 | 0.00 | 0.12 | 0.07 | 90 | 1016.8 |
| 20260508021528 | 49 | 190 | 0.0 | 0.0 | 0.00 | 0.12 | 0.07 | 89 | 1016.8 |
| 20260508020026 | 49 | 190 | 0.0 | 0.0 | 0.00 | 0.12 | 0.07 | 89 | 1016.6 |
| 20260508014536 | 49 | 190 | 0.0 | 0.0 | 0.00 | 0.13 | 0.07 | 88 | 1016.5 |
| 20260508013015 | 50 | 190 | 0.0 | 0.0 | 0.00 | 0.14 | 0.07 | 88 | 1016.3 |
| 20260508011522 | 50 | 190 | 0.0 | 1.0 | 0.00 | 0.14 | 0.07 | 86 | 1016.0 |
| 20260508010040 | 51 | 190 | 0.0 | 2.0 | 0.00 | 0.15 | 0.07 | 85 | 1015.8 |
| 20260508004531 | 52 | 190 | 0.0 | 2.0 | 0.00 | 0.16 | 0.07 | 84 | 1015.7 |
| 20260508003028 | 53 | 190 | 1.0 | 2.0 | 0.00 | 0.19 | 0.07 | 82 | 1015.5 |
| 20260508001520 | 54 | 188 | 0.0 | 2.0 | 0.00 | 0.24 | 0.07 | 80 | 1015.5 |
| 20260508000025 | 55 | 153 | 1.0 | 4.0 | 0.00 | 0.24 | 0.07 | 77 | 1015.4 |
| 20260507234508 | 57 | 225 | 2.0 | 5.0 | 0.00 | 0.24 | 0.07 | 73 | 1015.5 |
| 20260507233012 | 57 | 200 | 2.0 | 5.0 | 0.00 | 0.24 | 0.07 | 71 | 1015.5 |
| 20260507231517 | 58 | 196 | 1.0 | 6.0 | 0.00 | 0.24 | 0.07 | 71 | 1015.5 |
| 20260507230025 | 58 | 194 | 3.0 | 5.0 | 0.00 | 0.25 | 0.07 | 70 | 1015.5 |
| 20260507224511 | 59 | 184 | 1.0 | 5.0 | 0.00 | 0.25 | 0.07 | 67 | 1015.7 |
| 20260507223010 | 59 | 300 | 1.0 | 7.0 | 0.00 | 0.25 | 0.07 | 67 | 1015.4 |
| 20260507221518 | 59 | 275 | 1.0 | 3.0 | 0.00 | 0.25 | 0.07 | 67 | 1015.2 |
| 20260507220021 | 57 | 200 | 1.0 | 4.0 | 0.00 | 0.25 | 0.07 | 68 | 1015.2 |
| 20260507214525 | 57 | 192 | 2.0 | 4.0 | 0.00 | 0.25 | 0.07 | 71 | 1015.0 |
| 20260507213007 | 58 | 257 | 2.0 | 5.0 | 0.00 | 0.25 | 0.07 | 66 | 1014.7 |
| 20260507211520 | 57 | 259 | 2.0 | 4.0 | 0.00 | 0.25 | 0.07 | 69 | 1014.7 |
| 20260507210019 | 57 | 340 | 1.0 | 3.0 | 0.00 | 0.25 | 0.07 | 70 | 1014.7 |
| 20260507204524 | 57 | 134 | 1.0 | 4.0 | 0.00 | 0.25 | 0.07 | 71 | 1014.6 |
| 20260507203033 | 56 | 200 | 1.0 | 3.0 | 0.00 | 0.25 | 0.07 | 74 | 1014.7 |
| 20260507201511 | 54 | 300 | 2.0 | 4.0 | 0.00 | 0.25 | 0.07 | 74 | 1015.0 |
| 20260507200016 | 54 | 343 | 0.0 | 5.0 | 0.00 | 0.25 | 0.07 | 76 | 1015.0 |
| 20260507194527 | 55 | 262 | 1.0 | 4.0 | 0.00 | 0.25 | 0.07 | 73 | 1015.1 |
| 20260507193032 | 55 | 310 | 2.0 | 4.0 | 0.00 | 0.25 | 0.07 | 72 | 1014.9 |
| 20260507191528 | 54 | 39 | 0.0 | 4.0 | 0.00 | 0.25 | 0.07 | 77 | 1015.0 |
| 20260507190012 | 54 | 327 | 2.0 | 5.0 | 0.00 | 0.25 | 0.07 | 77 | 1015.2 |